Voltar ao catálogo

COSMOS 2407

AtivoNavegaçãoPO
NORAD 28380·PAYLOAD·🇷🇺 Russia

Lançado Jul 22, 2004 de Plesetsk Cosmodrome

Loading…

Próximas Passagens (próximas 24 horas)

TLE

AtualizadoSource: Space-Track

Época: Sep 14, 2026, 13:07 UTC

1 28380U 04028A   26257.54667625  .00000056  00000-0  41764-4 0  9995
2 28380  82.9648   8.6410 0039207   4.5214   6.5715 13.76340179112173

Acompanhe COSMOS 2407 em tempo real com AllMySat

Download on the App Store